Regional Weather Roundup
Issued by NWS

Home | Current Version | Previous Version | Graphics & Text | Print | Product List | Glossary On
Versions: 1 2 3 4 5 6 7 8 9 10 11 12 13 14 15 16 17 18 19 20 21 22 23 24 25 26 27 28 29 30 31 32 33 34 35 36 37 38 39 40 41 42 43 44 45 46 47 48 49 50
000
ASUS43 KLMK 261410
RWRKY
KENTUCKY REGIONAL WEATHER ROUNDUP
NATIONAL WEATHER SERVICE LOUISVILLE KY
1000 AM EDT THU APR 26 2018

NOTE "FAIR" INDICATES FEW OR NO CLOUDS BELOW 12,000 FEET
WITH NO SIGNIFICANT WEATHER AND/OR OBSTRUCTIONS TO VISIBILITY.

KYZ001>023-026-027-061>063-070>075-261500-
WESTERN AND SOUTH CENTRAL KENTUCKY

CITY           SKY/WX    TMP DP  RH WIND       PRES   REMARKS
PADUCAH        CLOUDY    55  46  71 NE8       29.89R
HENDERSON      FAIR      56  36  47 NE12      29.94R
OWENSBORO      FAIR      54  37  52 NE9       29.93R
HOPKINSVILLE   DRIZZLE   55  55  97 NE6       29.89S
BOWLING GREEN    N/A     58  51  78 E3        29.91R
GLASGOW        FAIR      56  51  84 CALM      29.91S
$$

KYZ024-025-028>034-038-045-046-053-261500-
NORTH CENTRAL KENTUCKY

CITY           SKY/WX    TMP DP  RH WIND       PRES   REMARKS
LOUISVILLE/SDF CLOUDY    54  36  50 NW3       29.93S
LOUISVILLE/LOU CLOUDY    53  39  59 VRB3      29.94S
FORT KNOX      CLOUDY    54  37  53 NE5       29.93S
$$

KYZ035>037-039>044-047>052-055>060-089>105-261500-
NORTHEAST KENTUCKY

CITY           SKY/WX    TMP DP  RH WIND       PRES   REMARKS
LEXINGTON      PTSUNNY   54  42  64 CALM      29.92S
COVINGTON      FAIR      51  36  56 CALM      29.93R
FRANKFORT      PTSUNNY   54  38  54 CALM      29.92R
$$

KYZ054-064>069-076>088-106>120-261500-
SOUTHEAST KENTUCKY

CITY           SKY/WX    TMP DP  RH WIND       PRES   REMARKS
JACKSON        FAIR      53  51  93 CALM      29.93R
LONDON         FAIR      51  50  96 SE3       29.92S
SOMERSET       FAIR      54  54 100 CALM      29.93S
MIDDLESBORO    FAIR      51  51 100 CALM      29.94S
MONTICELLO     NOT AVBL
$$





USA.gov is the U.S. government's official web portal to all federal, state and local government web resources and services.